Flag for Spain Weather past 2 weeks in Granada, Spain

Now
79 °F

Clear.


Feels Like: 80 °F
Forecast: 65 / 99 °F
Wind: 13 mph from South

Location: Granada / Aeropuerto

Current Time: Aug 30, 2015 at 1:38:36 AM

Latest Report: Aug 29, 2015 at 11:00 PM


Visibility: 10 mi

Pressure: 30.07 "Hg (27.77 "Hg at 698m altitude)

Humidity: 58%

Dew point: 63 °F

Location of GranadaLocation

Historic Weather in Granada — Graph

°F

Granada temperature yesterday

Maximum temperature yesterday: 97 °F (at 3:30 PM)
Minimum temperature yesterday: 68 °F (at 8:00 AM)
Average temperature yesterday: 84 °F

Past Weeks' High & Low Weather Summary

 TemperatureHumidityPressure
High100 °F (Aug 28, 4:30 PM)88% (Aug 20, 8:00 AM)30.18 "Hg (Aug 20, 8:00 AM)
Low54 °F (Aug 15, 7:30 AM)14% (Aug 15, 3:30 PM)29.86 "Hg (Aug 17, 6:30 PM)
Average80 °F44%30.03 "Hg
* Reported Aug 14 11:00 PM — Aug 29 11:00 PM, Granada, Weather by CustomWeather, © 2015

Note: Actual official high and low records may vary slightly from our data, if they occured in-between our weather recording intervals... More about our weather records

Advertising

Granada weather history for previous 24 hours

 ConditionsComfort  
Time TempWeatherWind HumidityBarometerVisibility
11:00 PM
Sat, Aug 29
79 °FClear.13 mph58%30.07 "Hg10 mi
10:30 PM81 °FPassing clouds.9 mph54%30.07 "HgN/A
10:00 PM81 °FPassing clouds.7 mph51%30.07 "HgN/A
9:30 PM82 °FPassing clouds.5 mph48%30.04 "HgN/A
9:00 PM84 °FPassing clouds.No wind45%30.04 "HgN/A
8:30 PM84 °FPassing clouds.7 mph48%30.04 "HgN/A
8:00 PM86 °FPassing clouds.9 mph46%30.01 "HgN/A
7:30 PM86 °FPassing clouds.13 mph46%30.01 "HgN/A
7:00 PM86 °FPassing clouds.14 mph46%30.01 "HgN/A
6:30 PM88 °FPassing clouds.14 mph43%30.01 "HgN/A
6:00 PM88 °FPassing clouds.17 mph43%30.01 "HgN/A
5:30 PM91 °FPassing clouds.17 mph34%30.04 "HgN/A
5:00 PM91 °FPassing clouds.16 mph34%30.04 "HgN/A
4:00 PM95 °FPassing clouds.15 mph32%30.04 "HgN/A
3:30 PM97 °FPassing clouds.2 mph27%30.04 "HgN/A
3:00 PM95 °FPassing clouds.2 mph22%30.04 "HgN/A
2:30 PM95 °FPassing clouds.3 mph23%30.04 "HgN/A
2:00 PM95 °FSunny.2 mph20%30.07 "Hg10 mi
1:30 PM93 °FPassing clouds.3 mph21%30.07 "HgN/A
1:00 PM91 °FPassing clouds.7 mph24%30.07 "HgN/A
12:00 PM88 °FSunny.13 mph27%30.12 "Hg10 mi
11:30 AM84 °FSunny.1 mph31%30.12 "Hg10 mi
11:00 AM81 °FPassing clouds.3 mph39%30.12 "HgN/A
10:30 AM79 °FSunny.1 mph42%30.09 "Hg10 mi
10:00 AM77 °FPassing clouds.3 mph54%30.09 "HgN/A
9:00 AM70 °FPassing clouds.1 mph69%30.09 "HgN/A
8:00 AM68 °FClear.2 mph64%30.09 "Hg10 mi
7:30 AM70 °FClear.2 mph53%30.07 "Hg10 mi
7:00 AM70 °FClear.1 mph57%30.07 "Hg10 mi
6:30 AM72 °FClear.2 mph57%30.07 "Hg10 mi
6:00 AM73 °FClear.1 mph50%30.07 "Hg10 mi
Weather by CustomWeather, © 2015

See weather overviewHow to use our weather pages